Weather History for Phillips, WI

Change the Weather History Date:

Thursday, October 4, 2012

  Actual Average Record
Temperature  
Mean Temperature 51 °F -  
Max Temperature 60 °F 57 °F 78 °F (2011)
Min Temperature 42 °F 37 °F 24 °F (1999)
Degree Days  
Heating Degree Days 14    
Growing Degree Days 1 (Base 50)    
Moisture  
Dew Point 39 °F    
Average Humidity 61    
Maximum Humidity 77    
Minimum Humidity 41    
Precipitation  
Precipitation 0.00 in - - ()
Sea Level Pressure  
Sea Level Pressure 29.91 in    
Wind  
Wind Speed 10 mph (SW)    
Max Wind Speed 21 mph    
Max Gust Speed 31 mph    
Visibility 10 miles    
Events      
Averages and records for this station are not official NWS values.
T = Trace of Precipitation, MM = Missing Value Source: NWS Daily Summary

Daily Weather History Graph

Daily Weather History Graph

Search for Another Location

Airport:

Trip Planner

Search our weather history database for the weather conditions in past years. The results will help you decide how hot, cold, wet, or windy it might be!

Date:

Astronomy

Oct. 04, 2012 Rise Set
Actual Time 7:04 AM CDT 6:35 PM CDT
Civil Twilight 6:34 AM CDT 7:04 PM CDT
Nautical Twilight 6:00 AM CDT 7:39 PM CDT
Astronomical Twilight 5:25 AM CDT 8:13 PM CDT
Moon 8:56 PM CDT (10/4) 11:35 AM CDT (10/4)
Length of Visible Light 12h 30m
Length of Day
11h 30m
Waning Gibbous, 82% of the Moon is Illuminated
Oct 4
Waning Gibbous
Oct 8
Last Quarter
Oct 15
New
Oct 21
First Quarter
Oct 29
Full

Hourly Weather History & Observations

Time (CDT) Temp. Windchill Dew Point Humidity Pressure Visibility Wind Dir Wind Speed Gust Speed Precip Events Conditions
12:15 AM 59.0 °F - 46.4 °F 63% 29.97 in 10.0 mi SSE 6.9 mph - N/A   Clear
12:35 AM 59.0 °F - 46.4 °F 63% 29.96 in 10.0 mi South 8.1 mph - N/A   Clear
12:55 AM 59.0 °F - 46.4 °F 63% 29.96 in 10.0 mi South 8.1 mph - N/A   Clear
1:15 AM 59.0 °F - 46.4 °F 63% 29.95 in 10.0 mi South 6.9 mph - N/A   Clear
1:35 AM 57.2 °F - 46.4 °F 67% 29.95 in 10.0 mi South 6.9 mph - N/A   Clear
1:55 AM 57.2 °F - 46.4 °F 67% 29.95 in 10.0 mi South 5.8 mph - N/A   Clear
2:15 AM 57.2 °F - 46.4 °F 67% 29.94 in 10.0 mi South 4.6 mph - N/A   Clear
2:35 AM 57.2 °F - 46.4 °F 67% 29.93 in 10.0 mi SSE 3.5 mph - N/A   Clear
2:55 AM 55.4 °F - 46.4 °F 72% 29.92 in 10.0 mi Calm Calm - N/A   Clear
3:15 AM 57.2 °F - 46.4 °F 67% 29.92 in 10.0 mi South 5.8 mph - N/A   Clear
3:35 AM 57.2 °F - 46.4 °F 67% 29.91 in 10.0 mi South 5.8 mph - N/A   Clear
3:55 AM 55.4 °F - 46.4 °F 72% 29.91 in 10.0 mi SSE 5.8 mph - N/A   Clear
4:15 AM 55.4 °F - 46.4 °F 72% 29.91 in 10.0 mi SSE 6.9 mph - N/A   Clear
4:35 AM 55.4 °F - 46.4 °F 72% 29.90 in 10.0 mi SSE 5.8 mph - N/A   Clear
4:55 AM 55.4 °F - 48.2 °F 77% 29.89 in 10.0 mi SSE 4.6 mph - N/A   Clear
5:15 AM 55.4 °F - 48.2 °F 77% 29.88 in 10.0 mi SSE 5.8 mph - N/A   Clear
5:35 AM 55.4 °F - 48.2 °F 77% 29.87 in 10.0 mi SSE 6.9 mph - N/A   Clear
5:55 AM 55.4 °F - 48.2 °F 77% 29.87 in 10.0 mi SSE 6.9 mph - N/A   Clear
6:15 AM 55.4 °F - 48.2 °F 77% 29.86 in 10.0 mi South 8.1 mph - N/A   Clear
6:35 AM 55.4 °F - 48.2 °F 77% 29.85 in 10.0 mi South 6.9 mph - N/A   Clear
6:55 AM 55.4 °F - 48.2 °F 77% 29.85 in 10.0 mi South 8.1 mph - N/A   Scattered Clouds
7:15 AM 55.4 °F - 48.2 °F 77% 29.84 in 10.0 mi SSE 9.2 mph - N/A   Clear
7:35 AM 55.4 °F - 48.2 °F 77% 29.83 in 10.0 mi South 10.4 mph 16.1 mph N/A   Clear
7:55 AM 55.4 °F - 48.2 °F 77% 29.82 in 10.0 mi South 10.4 mph - N/A   Clear
8:15 AM 57.2 °F - 48.2 °F 72% 29.82 in 10.0 mi South 10.4 mph - N/A   Clear
8:35 AM 59.0 °F - 48.2 °F 67% 29.82 in 10.0 mi South 10.4 mph 17.3 mph N/A   Scattered Clouds
8:55 AM 59.0 °F - 48.2 °F 67% 29.82 in 10.0 mi SSW 15.0 mph 21.9 mph N/A   Scattered Clouds
9:15 AM 60.8 °F - 48.2 °F 63% 29.82 in 10.0 mi SSW 16.1 mph 21.9 mph N/A   Scattered Clouds
9:35 AM 59.0 °F - 48.2 °F 67% 29.81 in 10.0 mi SSW 15.0 mph 21.9 mph N/A   Scattered Clouds
9:55 AM 57.2 °F - 46.4 °F 67% 29.82 in 10.0 mi SW 17.3 mph 26.5 mph N/A   Clear
10:15 AM 57.2 °F - 44.6 °F 63% 29.83 in 10.0 mi SW 15.0 mph 23.0 mph N/A   Clear
10:35 AM 55.4 °F - 44.6 °F 67% 29.85 in 10.0 mi WSW 19.6 mph 26.5 mph N/A   Scattered Clouds
10:55 AM 53.6 °F - 42.8 °F 67% 29.85 in 10.0 mi WSW 19.6 mph 25.3 mph N/A   Mostly Cloudy
11:15 AM 51.8 °F - 42.8 °F 71% 29.86 in 10.0 mi SW 17.3 mph 27.6 mph N/A   Overcast
11:35 AM 53.6 °F - 42.8 °F 67% 29.85 in 10.0 mi SW 15.0 mph 23.0 mph N/A   Mostly Cloudy
11:55 AM 53.6 °F - 42.8 °F 67% 29.86 in 10.0 mi SSW 17.3 mph 24.2 mph N/A   Mostly Cloudy
12:15 PM 55.4 °F - 42.8 °F 63% 29.86 in 10.0 mi SW 18.4 mph 24.2 mph N/A   Mostly Cloudy
12:35 PM 55.4 °F - 41.0 °F 58% 29.86 in 10.0 mi SW 15.0 mph 27.6 mph N/A   Mostly Cloudy
12:55 PM 55.4 °F - 39.2 °F 54% 29.86 in 10.0 mi WSW 16.1 mph 24.2 mph N/A   Mostly Cloudy
1:35 PM 55.4 °F - 37.4 °F 51% 29.86 in 10.0 mi WSW 16.1 mph 26.5 mph N/A   Scattered Clouds
1:55 PM 57.2 °F - 37.4 °F 48% 29.86 in 10.0 mi WSW 19.6 mph 27.6 mph N/A   Scattered Clouds
2:15 PM 57.2 °F - 35.6 °F 44% 29.86 in 10.0 mi SW 20.7 mph 31.1 mph N/A   Clear
2:35 PM 57.2 °F - 35.6 °F 44% 29.87 in 10.0 mi WSW 20.7 mph 27.6 mph N/A   Clear
2:55 PM 57.2 °F - 35.6 °F 44% 29.87 in 10.0 mi SW 20.7 mph 26.5 mph N/A   Clear
3:15 PM 55.4 °F - 33.8 °F 44% 29.88 in 10.0 mi WSW 16.1 mph 29.9 mph N/A   Clear
3:35 PM 55.4 °F - 32.0 °F 41% 29.89 in 10.0 mi WSW 15.0 mph 29.9 mph N/A   Clear
3:55 PM 53.6 °F - 33.8 °F 47% 29.90 in 10.0 mi WSW 17.3 mph 24.2 mph N/A   Clear
4:15 PM 53.6 °F - 30.2 °F 41% 29.91 in 10.0 mi WSW 11.5 mph 27.6 mph N/A   Clear
4:35 PM 53.6 °F - 33.8 °F 47% 29.92 in 10.0 mi WSW 18.4 mph 26.5 mph N/A   Scattered Clouds
4:55 PM 51.8 °F - 32.0 °F 47% 29.92 in 10.0 mi SW 17.3 mph 26.5 mph N/A   Scattered Clouds
5:15 PM 51.8 °F - 30.2 °F 44% 29.92 in 10.0 mi WSW 15.0 mph 24.2 mph N/A   Clear
5:35 PM 51.8 °F - 30.2 °F 44% 29.93 in 10.0 mi WSW 16.1 mph 21.9 mph N/A   Clear
5:55 PM 51.8 °F - 30.2 °F 44% 29.93 in 10.0 mi WSW 12.7 mph 28.8 mph N/A   Clear
6:15 PM 48.2 °F - 30.2 °F 50% 29.94 in 10.0 mi WSW 19.6 mph 27.6 mph N/A   Clear
6:35 PM 48.2 °F - 30.2 °F 50% 29.95 in 10.0 mi WSW 12.7 mph 27.6 mph N/A   Mostly Cloudy
6:55 PM 48.2 °F - 30.2 °F 50% 29.95 in 10.0 mi WSW 12.7 mph 24.2 mph N/A   Overcast
7:15 PM 48.2 °F - 30.2 °F 50% 29.96 in 10.0 mi WSW 13.8 mph 25.3 mph N/A   Overcast
7:35 PM 46.4 °F 40.7 °F 30.2 °F 53% 29.96 in 10.0 mi WSW 12.7 mph 27.6 mph N/A   Overcast
7:55 PM 46.4 °F 40.4 °F 30.2 °F 53% 29.97 in 10.0 mi WSW 13.8 mph 23.0 mph N/A   Overcast
8:15 PM 46.4 °F 41.1 °F 30.2 °F 53% 29.97 in 10.0 mi WSW 11.5 mph 19.6 mph N/A   Overcast
8:35 PM 46.4 °F 41.5 °F 30.2 °F 53% 29.97 in 10.0 mi WSW 10.4 mph 23.0 mph N/A   Overcast
8:55 PM 44.6 °F 38.1 °F 30.2 °F 57% 29.97 in 10.0 mi WSW 13.8 mph 18.4 mph N/A   Overcast
9:15 PM 44.6 °F 37.8 °F 30.2 °F 57% 29.97 in 10.0 mi WSW 15.0 mph 27.6 mph N/A   Overcast
9:35 PM 44.6 °F 37.2 °F 30.2 °F 57% 29.98 in 10.0 mi WSW 17.3 mph 27.6 mph N/A   Overcast
9:55 PM 44.6 °F 37.2 °F 28.4 °F 53% 29.98 in 10.0 mi WSW 17.3 mph 24.2 mph N/A   Overcast
10:15 PM 44.6 °F 38.1 °F 28.4 °F 53% 29.99 in 10.0 mi WSW 13.8 mph 20.7 mph N/A   Overcast
10:35 PM 44.6 °F 38.8 °F 30.2 °F 57% 29.99 in 10.0 mi West 11.5 mph 24.2 mph N/A   Overcast
10:55 PM 42.8 °F 36.2 °F 28.4 °F 57% 29.99 in 10.0 mi West 12.7 mph 21.9 mph N/A   Overcast
11:15 PM 42.8 °F 36.2 °F 28.4 °F 57% 29.99 in 10.0 mi WSW 12.7 mph 23.0 mph N/A   Overcast
11:35 PM 42.8 °F 37.5 °F 28.4 °F 57% 29.99 in 10.0 mi West 9.2 mph 19.6 mph N/A   Overcast
11:55 PM 42.8 °F 34.8 °F 28.4 °F 57% 29.99 in 10.0 mi WSW 17.3 mph 27.6 mph N/A   Overcast